User: anonymous   Login
Location: *
(44.1392°N, 4.8079°E)
Time: 09:31:18
(UTC+00:00)
Language:

CZ-4C R/B - Orbit

View from above orbital plane
View from above orbital plane
View from above satellite
View from above satellite

Ground track
Ground track

The orbit data is extracted from the following two-line orbital elements,

1 36416U 10009D   21267.71424209 -.00000084  00000-0  12883-4 0  9996
2 36416  63.4202  32.1804 0540429 355.7762   3.8806 13.69602283577909
Epoch (UTC): 24 September 2021 17:08:30
Eccentricity: 0.0540429
inclination: 63.4202°
perigee height: 602 km
apogee height: 1400 km
right ascension of ascending node: 32.1804°
argument of perigee: 355.7762°
revolutions per day: 13.69602283
mean anomaly at epoch: 3.8806°
orbit number at epoch: 57790

The dashed part of the orbit path shows where the satellite is in the earth's shadow,  

DLR